Regional Weather Roundup
Issued by NWS Portland, ME

Current Version | Previous Version | Text Only | Print | Product List | Glossary Off
Versions: 1 2 3 4 5 6 7 8 9 10 11 12 13 14 15 16 17 18 19 20 21 22 23 24 25 26 27 28 29 30 31 32 33 34 35 36 37 38 39 40 41 42 43 44 45 46 47 48 49 50
793 ASUS41 KGYX 211905 RWRGYX WEATHER ROUNDUP FOR MAINE AND NEW HAMPSHIRE NATIONAL WEATHER SERVICE GRAY ME 300 PM EDT THU JUN 21 2018 MEZ002-005-006-010-012-015-018-020-021-024-026-027-029-212000- MAINE CITY SKY/WX TMP DP RH WIND PRES REMARKS PORTLAND FAIR 72 56 57 S8 29.78F SANFORD CLOUDY 74 61 63 E8 29.79S BAR HARBOR PTSUNNY 73 48 41 N6 29.77S WISCASSET PTSUNNY 72 57 59 S10 29.79S ROCKLAND FAIR 69 53 56 S8 29.78S FRYEBURG FAIR 76 48 37 MISG 29.78S LEWISTONAUBURN N/A 78 44 29 MISG N/A AUGUSTA PTSUNNY 75 46 35 NE6 29.78S WATERVILLE FAIR 75 46 35 VRB7 29.76S BANGOR FAIR 74 42 31 NW12 29.79S GREENVILLE N/A 64 39 39 N13G23 29.82R MILLINOCKET FAIR 68 38 33 VRB6G18 29.82S HOULTON FAIR 67 41 38 N10 29.79S PRESQUE ISLE NOT AVBL FRENCHVILLE PTSUNNY 59 36 42 NW13 29.84R CARIBOU PTSUNNY 64 37 36 N16G22 29.82R $$ NHZ002-005-008-009-011-012-014-212000- NEW HAMPSHIRE CITY SKY/WX TMP DP RH WIND PRES REMARKS PORTSMOUTH PTSUNNY 74 56 53 E10 29.77F ROCHESTER FAIR 76 59 55 NW5 29.77F NASHUA PTSUNNY 78 59 51 NW9 29.78S MANCHESTER FAIR 80 55 42 VRB7 29.76F CONCORD FAIR 78 54 43 N6 29.78F LACONIA FAIR 77 45 32 W12G17 29.79F PLYMOUTH FAIR 76 40 27 W9 29.80S BERLIN FAIR 72 38 29 N13G21 29.84R WHITEFIELD FAIR 73 39 29 N8 29.84S JAFFREY FAIR 79 54 41 VRB5G16 29.80F KEENE FAIR 82 56 40 NW13 29.78F LEBANON FAIR 79 42 26 N12G17 29.81S MT WASHINGTON MOSUNNY 46 30 53 W24G33 N/A $$ VTZ005-007-008-212000- VERMONT CITY SKY/WX TMP DP RH WIND PRES REMARKS ST JOHNSBURY N/A 70 43 37 MISG 29.83S MONTPELIER FAIR 69 45 41 NW10G21 29.90S BURLINGTON FAIR 69 39 33 N15G22 29.90S $$ MAZ007-012-024-CTZ003-RIZ002-NYZ038-NYZ072-212000- SOUTHERN NEW ENGLAND AND NY CITY SKY/WX TMP DP RH WIND PRES REMARKS BOSTON PTSUNNY 73 57 57 E15 29.77S WORCESTER CLOUDY 77 57 50 N9 29.79S NANTUCKET CLOUDY 65 64 97 SE12 29.78S FOG PROVIDENCE FAIR 79 62 56 S8 29.75F HARTFORD FAIR 84 54 35 VRB5 29.75F ALBANY FAIR 79 57 46 VRB5 29.80F NEW YORK CITY FAIR 82 58 43 CALM 29.75F $$ ANZ081-ANZ082-ANZ150-NHZ014-MEZ023>029-212000- COASTAL MARINE OBSERVATIONS STATION/POSITION TIME TEMP WIND PRES WAVE AIR SEA DIR/SP/G HT/PER (UTC) (F) (DEG/KT/KT) (MB) (FT/S) MOUNT DESERT ROC 1900 62 130/ 7/ 7 1008.9R MATINICUS ROCK 1800 62 110/ 10/ 10 1008.3F ISLE OF SHOALS 1800 65 80/ 11/ 11 1008.3R JEFFREYS LEDGE 1836 60 N/A 1/ 7 $$ .............KEY.............. WCI - WIND CHILL TC - TEMPERATURE IN CELSIUS VSB - VISIBILITY IN MILES HX - HEAT INDEX FAIR- INDICATES FEW OR NO CLOUDS BELOW 12,000 FT, WITH NO SIGNIFICANT WEATHER AND/OR OBSTRUCTIONS TO VISIBILITY.

USA.gov is the U.S. government's official web portal to all federal, state and local government web resources and services.